Retour au catalogue

3CAT-4

ActifScienceVLEO
NORAD 60236·PAYLOAD·🇪🇸 Spain

Lancé Jul 9, 2024 depuis Guiana Space Centre

Loading…

Prochains Passages (prochaines 24 heures)

TLE

FraisSource: Space-Track

Époque: Sep 14, 2026, 13:20 UTC

1 60236U 24128B   26257.55568605  .00001022  00000-0  91731-4 0  9996
2 60236  61.9919 274.2570 0029858 159.1793 201.0521 15.02474854119538

Suivez 3CAT-4 en temps réel avec AllMySat

Download on the App Store